• In Hungary
  • List of Countries
  • For 7 days
  • Water Temperature
  • Satellite Maps
  • Weather Map
  • News
  • Weather Widgets
  • user-avatar
    Login

    Hourly Weather Lipie

    Today, 20 November, Monday

    Time Temperature Precipitation Wind Pressure Humidity
    00:00 0°C° 0.1 mm 3 mps 726 mmHg 83%
    01:00 -1°C° 0.1 mm 4 mps 726 mmHg 84%
    02:00 -1°C° 0.4 mm 4 mps 726 mmHg 84%
    03:00 -1°C° 0.4 mm 4 mps 726 mmHg 85%
    04:00 -1°C° 0.4 mm 4 mps 726 mmHg 85%
    05:00 -1°C° 0 mm 4 mps 726 mmHg 85%
    06:00 -1°C° 0 mm 4 mps 726 mmHg 85%
    07:00 -2°C° 0 mm 5 mps 727 mmHg 85%
    08:00 -1°C° 0.2 mm 5 mps 727 mmHg 83%
    09:00 -2°C° 0.2 mm 6 mps 728 mmHg 81%
    10:00 -1°C° 0.2 mm 6 mps 728 mmHg 79%
    11:00 -1°C° 0 mm 6 mps 729 mmHg 75%
    12:00 -1°C° 0 mm 6 mps 729 mmHg 71%
    13:00 +1°C° 0 mm 5 mps 729 mmHg 68%
    14:00 0°C° 0 mm 4 mps 729 mmHg 71%
    15:00 0°C° 0 mm 3 mps 729 mmHg 75%
    16:00 -1°C° 0 mm 2 mps 729 mmHg 79%
    17:00 -1°C° 0.2 mm 2 mps 729 mmHg 80%
    18:00 0°C° 0.2 mm 3 mps 729 mmHg 82%
    19:00 0°C° 0.2 mm 3 mps 729 mmHg 83%
    20:00 0°C° 0.1 mm 3 mps 729 mmHg 85%
    21:00 -1°C° 0.1 mm 3 mps 729 mmHg 87%
    22:00 -1°C° 0.1 mm 3 mps 729 mmHg 89%
    23:00 -1°C° 0 mm 3 mps 729 mmHg 88%

    Tomorrow, 21 November, Tuesday

    Time Temperature Precipitation Wind Pressure Humidity
    00:00 -1°C° 0 mm 2 mps 729 mmHg 88%
    01:00 -1°C° 0 mm 2 mps 729 mmHg 88%
    02:00 -1°C° 0.2 mm 2 mps 729 mmHg 88%
    03:00 -1°C° 0.2 mm 2 mps 728 mmHg 89%
    04:00 +1°C° 0.2 mm 2 mps 728 mmHg 89%
    05:00 +1°C° 0.4 mm 2 mps 728 mmHg 90%
    06:00 +1°C° 0.4 mm 2 mps 727 mmHg 91%
    07:00 +1°C° 0.4 mm 2 mps 727 mmHg 92%
    08:00 +1°C° 0.3 mm 2 mps 727 mmHg 91%
    09:00 +1°C° 0.3 mm 2 mps 727 mmHg 91%
    10:00 +2°C° 0.3 mm 2 mps 727 mmHg 90%
    11:00 +3°C° 0.2 mm 1 mps 727 mmHg 90%
    12:00 +4°C° 0.2 mm 1 mps 726 mmHg 89%
    13:00 +4°C° 0.2 mm 1 mps 726 mmHg 88%
    14:00 +4°C° 0.1 mm 1 mps 726 mmHg 90%
    15:00 +3°C° 0.1 mm 1 mps 726 mmHg 92%
    16:00 +2°C° 0.1 mm 0 mps 727 mmHg 94%
    17:00 +2°C° 0.2 mm 0 mps 727 mmHg 94%
    18:00 +2°C° 0.2 mm 0 mps 727 mmHg 95%
    19:00 +2°C° 0.2 mm 0 mps 728 mmHg 95%
    20:00 +3°C° 0.1 mm 1 mps 728 mmHg 95%
    21:00 +3°C° 0.1 mm 1 mps 728 mmHg 95%
    22:00 +3°C° 0.1 mm 1 mps 729 mmHg 96%
    23:00 +3°C° 0 mm 1 mps 729 mmHg 95%

    Day after tomorrow, 22 November, Wednesday

    Time Temperature Precipitation Wind Pressure Humidity
    00:00 +2°C° 0 mm 1 mps 730 mmHg 95%
    01:00 +2°C° 0 mm 1 mps 730 mmHg 95%
    02:00 +1°C° 0 mm 0 mps 730 mmHg 95%
    03:00 0°C° 0 mm 0 mps 731 mmHg 95%
    04:00 0°C° 0 mm 0 mps 731 mmHg 95%
    05:00 -1°C° 0 mm 0 mps 731 mmHg 95%
    06:00 0°C° 0 mm 1 mps 731 mmHg 95%
    07:00 0°C° 0 mm 1 mps 732 mmHg 95%
    08:00 +1°C° 0 mm 1 mps 732 mmHg 92%
    09:00 +2°C° 0 mm 2 mps 732 mmHg 89%
    10:00 +3°C° 0 mm 2 mps 733 mmHg 87%
    11:00 +4°C° 0 mm 2 mps 732 mmHg 86%
    12:00 +4°C° 0 mm 2 mps 732 mmHg 86%
    13:00 +5°C° 0 mm 2 mps 732 mmHg 85%
    14:00 +4°C° 0 mm 2 mps 732 mmHg 87%
    15:00 +4°C° 0 mm 2 mps 732 mmHg 89%
    16:00 +3°C° 0 mm 2 mps 732 mmHg 91%
    17:00 +3°C° 0 mm 2 mps 732 mmHg 91%
    18:00 +3°C° 0 mm 2 mps 732 mmHg 92%
    19:00 +2°C° 0 mm 2 mps 732 mmHg 92%
    20:00 +2°C° 0 mm 2 mps 733 mmHg 92%
    21:00 +2°C° 0 mm 2 mps 733 mmHg 92%
    22:00 +2°C° 0 mm 2 mps 733 mmHg 91%
    23:00 +2°C° 0 mm 2 mps 733 mmHg 91%

    23 November, Thursday

    Time Temperature Precipitation Wind Pressure Humidity
    00:00 +2°C° 0 mm 2 mps 733 mmHg 90%
    01:00 +2°C° 0 mm 2 mps 733 mmHg 90%
    02:00 +2°C° 0 mm 2 mps 734 mmHg 89%
    03:00 +2°C° 0 mm 2 mps 734 mmHg 88%
    04:00 +2°C° 0 mm 2 mps 734 mmHg 88%
    05:00 +2°C° 0 mm 2 mps 734 mmHg 87%
    06:00 +2°C° 0 mm 2 mps 734 mmHg 86%
    07:00 +2°C° 0 mm 2 mps 734 mmHg 86%
    08:00 +3°C° 0 mm 2 mps 735 mmHg 83%
    09:00 +4°C° 0 mm 3 mps 735 mmHg 81%
    10:00 +5°C° 0 mm 3 mps 735 mmHg 79%
    11:00 +7°C° 0 mm 3 mps 735 mmHg 79%
    12:00 +8°C° 0 mm 3 mps 735 mmHg 78%
    13:00 +8°C° 0 mm 3 mps 735 mmHg 78%
    14:00 +7°C° 0 mm 3 mps 735 mmHg 81%
    15:00 +5°C° 0 mm 3 mps 735 mmHg 84%
    16:00 +4°C° 0 mm 3 mps 735 mmHg 87%
    17:00 +4°C° 0 mm 3 mps 735 mmHg 86%
    18:00 +3°C° 0 mm 3 mps 736 mmHg 85%
    19:00 +4°C° 0 mm 2 mps 736 mmHg 84%
    20:00 +4°C° 0 mm 2 mps 736 mmHg 83%
    21:00 +4°C° 0 mm 2 mps 736 mmHg 82%
    22:00 +4°C° 0 mm 2 mps 736 mmHg 81%
    23:00 +4°C° 0 mm 2 mps 736 mmHg 81%

    24 November, Friday

    Time Temperature Precipitation Wind Pressure Humidity
    00:00 +4°C° 0 mm 2 mps 737 mmHg 81%
    01:00 +4°C° 0 mm 2 mps 737 mmHg 81%
    02:00 +4°C° 0 mm 2 mps 736 mmHg 81%
    03:00 +4°C° 0 mm 2 mps 736 mmHg 82%
    04:00 +4°C° 0 mm 2 mps 736 mmHg 82%
    05:00 +4°C° 0 mm 2 mps 736 mmHg 82%
    06:00 +4°C° 0 mm 2 mps 737 mmHg 83%
    07:00 +4°C° 0 mm 2 mps 737 mmHg 84%
    08:00 +6°C° 0 mm 2 mps 737 mmHg 81%
    09:00 +8°C° 0 mm 1 mps 737 mmHg 78%
    10:00 +9°C° 0 mm 1 mps 737 mmHg 76%
    11:00 +10°C° 0 mm 1 mps 737 mmHg 75%
    12:00 +11°C° 0 mm 1 mps 737 mmHg 74%
    13:00 +12°C° 0 mm 1 mps 737 mmHg 73%
    14:00 +11°C° 0 mm 1 mps 737 mmHg 77%
    15:00 +9°C° 0 mm 1 mps 737 mmHg 80%
    16:00 +8°C° 0 mm 1 mps 737 mmHg 84%
    17:00 +8°C° 0 mm 1 mps 737 mmHg 84%
    18:00 +7°C° 0 mm 1 mps 737 mmHg 84%
    19:00 +7°C° 0 mm 1 mps 737 mmHg 84%
    20:00 +7°C° 0 mm 1 mps 737 mmHg 84%
    21:00 +6°C° 0 mm 1 mps 737 mmHg 83%
    22:00 +6°C° 0 mm 1 mps 737 mmHg 83%
    23:00 +6°C° 0 mm 1 mps 737 mmHg 83%

    25 November, Saturday

    Time Temperature Precipitation Wind Pressure Humidity
    00:00 +6°C° 0 mm 1 mps 737 mmHg 83%
    01:00 +6°C° 0 mm 1 mps 737 mmHg 83%
    02:00 +5°C° 0 mm 1 mps 737 mmHg 84%
    03:00 +5°C° 0 mm 1 mps 737 mmHg 84%
    04:00 +4°C° 0 mm 2 mps 737 mmHg 84%
    05:00 +4°C° 0 mm 2 mps 737 mmHg 84%
    06:00 +4°C° 0 mm 2 mps 737 mmHg 85%
    07:00 +4°C° 0 mm 2 mps 738 mmHg 85%
    08:00 +5°C° 0 mm 2 mps 738 mmHg 81%
    09:00 +6°C° 0 mm 2 mps 738 mmHg 78%
    10:00 +7°C° 0 mm 2 mps 738 mmHg 74%
    11:00 +8°C° 0 mm 2 mps 738 mmHg 74%
    12:00 +9°C° 0 mm 2 mps 738 mmHg 73%
    13:00 +10°C° 0 mm 3 mps 737 mmHg 72%
    14:00 +9°C° 0 mm 3 mps 737 mmHg 76%
    15:00 +7°C° 0 mm 3 mps 737 mmHg 81%
    16:00 +5°C° 0 mm 3 mps 737 mmHg 86%
    17:00 +5°C° 0 mm 3 mps 737 mmHg 87%
    18:00 +4°C° 0 mm 3 mps 737 mmHg 87%
    19:00 +4°C° 0 mm 3 mps 737 mmHg 88%
    20:00 +4°C° 0 mm 3 mps 737 mmHg 87%
    21:00 +4°C° 0 mm 3 mps 737 mmHg 87%
    22:00 +4°C° 0 mm 3 mps 737 mmHg 87%
    23:00 +3°C° 0 mm 3 mps 737 mmHg 87%
    Show more